Zurück zum Katalog

STARLINK-37256

AktivKommunikationVLEO
NORAD 68569·PAYLOAD·🇺🇸 United States

Gestartet Apr 2, 2026 von Cape Canaveral Space Force Station

Loading…

Nächste Überflüge (nächste 24 Stunden)

TLE

AktuellSource: CelesTrak SupGP

Epoche: Sep 14, 2026, 15:59 UTC

1 68569C 26070AD  26257.66645833  .00051258  00000+0  15151-2 0  2574
2 68569  53.1590 200.6351 0001159  80.6340  34.3829 15.34351276    10

Verfolge STARLINK-37256 in Echtzeit mit AllMySat

Download on the App Store